Location: *
(28.2408°N, 53.4600°E)
Time: 02:36:25
(UTC+00:00)

Cosmos 389 Rocket - Pass Details

Date: 22 September 2019
Orbit: 444 x 479 km, 81.1° (Epoch: 15 October)

Event Time Altitude Azimuth Distance (km) Brightness Sun altitude
Rises 15:52:45 0° 353° (N) 2,440 6.4 -20.4°
Reaches altitude 10° 15:54:49 10° 353° (N) 1,568 5.4 -20.8°
Enters shadow 15:57:36 57° 357° (N) 530 2.7 -21.4°
